When you browse on this site, cookies collect data to enhance your experience and personalize the content and advertising you see.
Visit our Privacy Policy to learn more. By continuing to use the site, you agree to this use of cookies and data.
  • In Switzerland
  • List of Countries
  • For 7 days
  • Water Temperature
  • Weather Map
  • Weather Widgets
  • user-avatar
    Login

    Hourly Weather Thimphu

    Today, 17 September, Tuesday

    Time Temperature Precipitation Wind Pressure Humidity
    00:00 +11°C° 0.3 mm 0 mps 525 mmHg 98%
    01:00 +11°C° 0.4 mm 0 mps 525 mmHg 98%
    02:00 +11°C° 0.4 mm 0 mps 525 mmHg 98%
    03:00 +11°C° 0.4 mm 0 mps 525 mmHg 98%
    04:00 +11°C° 0.5 mm 0 mps 525 mmHg 98%
    05:00 +10°C° 0.5 mm 0 mps 525 mmHg 98%
    06:00 +10°C° 0.5 mm 0 mps 525 mmHg 98%
    07:00 +11°C° 0.5 mm 0 mps 526 mmHg 97%
    08:00 +11°C° 0.5 mm 0 mps 526 mmHg 97%
    09:00 +13°C° 0.5 mm 1 mps 527 mmHg 96%
    10:00 +13°C° 0.9 mm 1 mps 527 mmHg 96%
    11:00 +12°C° 0.9 mm 1 mps 526 mmHg 97%
    12:00 +12°C° 0.9 mm 1 mps 526 mmHg 97%
    13:00 +12°C° 1.2 mm 1 mps 526 mmHg 98%
    14:00 +12°C° 1.2 mm 1 mps 525 mmHg 98%
    15:00 +12°C° 1.2 mm 1 mps 525 mmHg 98%
    16:00 +11°C° 0.4 mm 0 mps 525 mmHg 98%
    17:00 +11°C° 0.4 mm 0 mps 525 mmHg 98%
    18:00 +11°C° 0.4 mm 0 mps 525 mmHg 98%
    19:00 +11°C° 0 mm 0 mps 526 mmHg 97%
    20:00 +11°C° 0 mm 0 mps 526 mmHg 97%
    21:00 +10°C° 0 mm 0 mps 526 mmHg 96%
    22:00 +10°C° 0.4 mm 0 mps 526 mmHg 96%
    23:00 +10°C° 0.4 mm 0 mps 526 mmHg 97%

    Tomorrow, 18 September, Wednesday

    Time Temperature Precipitation Wind Pressure Humidity
    00:00 +10°C° 0.4 mm 0 mps 526 mmHg 97%
    01:00 +10°C° 0.7 mm 0 mps 526 mmHg 98%
    02:00 +10°C° 0.7 mm 0 mps 526 mmHg 98%
    03:00 +10°C° 0.7 mm 0 mps 526 mmHg 98%
    04:00 +10°C° 1.1 mm 0 mps 526 mmHg 98%
    05:00 +10°C° 1.1 mm 0 mps 526 mmHg 98%
    06:00 +10°C° 1.1 mm 0 mps 527 mmHg 98%
    07:00 +10°C° 1.3 mm 0 mps 527 mmHg 98%
    08:00 +10°C° 1.3 mm 0 mps 527 mmHg 98%
    09:00 +10°C° 1.3 mm 0 mps 528 mmHg 98%
    10:00 +11°C° 1 mm 0 mps 527 mmHg 98%
    11:00 +11°C° 1 mm 0 mps 527 mmHg 97%
    12:00 +11°C° 1 mm 0 mps 527 mmHg 97%
    13:00 +11°C° 1 mm 0 mps 526 mmHg 97%
    14:00 +11°C° 1 mm 0 mps 526 mmHg 97%
    15:00 +11°C° 1 mm 0 mps 525 mmHg 97%
    16:00 +11°C° 0.2 mm 0 mps 525 mmHg 97%
    17:00 +11°C° 0.2 mm 0 mps 525 mmHg 96%
    18:00 +10°C° 0.2 mm 0 mps 526 mmHg 96%
    19:00 +10°C° 0 mm 0 mps 526 mmHg 94%
    20:00 +10°C° 0 mm 1 mps 526 mmHg 93%
    21:00 +10°C° 0 mm 1 mps 526 mmHg 91%
    22:00 +10°C° 0 mm 1 mps 526 mmHg 91%
    23:00 +10°C° 0 mm 1 mps 526 mmHg 90%

    Day after tomorrow, 19 September, Thursday

    Time Temperature Precipitation Wind Pressure Humidity
    00:00 +10°C° 0 mm 1 mps 526 mmHg 90%
    01:00 +9°C° 0 mm 1 mps 526 mmHg 90%
    02:00 +9°C° 0 mm 1 mps 526 mmHg 90%
    03:00 +9°C° 0 mm 1 mps 525 mmHg 90%
    04:00 +9°C° 0 mm 1 mps 526 mmHg 89%
    05:00 +9°C° 0 mm 1 mps 526 mmHg 89%
    06:00 +8°C° 0 mm 1 mps 526 mmHg 89%
    07:00 +11°C° 0 mm 1 mps 528 mmHg 81%
    08:00 +14°C° 0 mm 1 mps 529 mmHg 74%
    09:00 +18°C° 0 mm 1 mps 531 mmHg 67%
    10:00 +19°C° 0.1 mm 1 mps 532 mmHg 61%
    11:00 +19°C° 0.1 mm 2 mps 532 mmHg 55%
    12:00 +20°C° 0.1 mm 2 mps 532 mmHg 50%
    13:00 +19°C° 0.3 mm 2 mps 531 mmHg 56%
    14:00 +19°C° 0.3 mm 2 mps 530 mmHg 61%
    15:00 +18°C° 0.3 mm 2 mps 529 mmHg 67%
    16:00 +16°C° 0.4 mm 2 mps 528 mmHg 76%
    17:00 +14°C° 0.4 mm 1 mps 527 mmHg 85%
    18:00 +11°C° 0.4 mm 0 mps 526 mmHg 94%
    19:00 +11°C° 0.1 mm 0 mps 526 mmHg 94%
    20:00 +10°C° 0.1 mm 0 mps 526 mmHg 94%
    21:00 +10°C° 0.1 mm 0 mps 526 mmHg 94%
    22:00 +10°C° 0.1 mm 0 mps 526 mmHg 93%
    23:00 +9°C° 0.1 mm 0 mps 526 mmHg 93%

    20 September, Friday

    Time Temperature Precipitation Wind Pressure Humidity
    00:00 +9°C° 0.1 mm 0 mps 526 mmHg 92%
    01:00 +9°C° 0 mm 0 mps 526 mmHg 92%
    02:00 +9°C° 0 mm 0 mps 525 mmHg 92%
    03:00 +9°C° 0 mm 1 mps 525 mmHg 91%
    04:00 +9°C° 0 mm 1 mps 525 mmHg 90%
    05:00 +9°C° 0 mm 1 mps 525 mmHg 89%
    06:00 +8°C° 0 mm 1 mps 525 mmHg 88%
    07:00 +11°C° 0 mm 1 mps 527 mmHg 80%
    08:00 +14°C° 0 mm 1 mps 529 mmHg 73%
    09:00 +18°C° 0 mm 1 mps 531 mmHg 65%
    10:00 +17°C° 0.3 mm 2 mps 531 mmHg 64%
    11:00 +18°C° 0.3 mm 2 mps 531 mmHg 62%
    12:00 +19°C° 0.3 mm 2 mps 531 mmHg 61%
    13:00 +18°C° 0.7 mm 2 mps 530 mmHg 67%
    14:00 +17°C° 0.7 mm 2 mps 529 mmHg 72%
    15:00 +17°C° 0.7 mm 2 mps 528 mmHg 78%
    16:00 +15°C° 0.6 mm 1 mps 527 mmHg 84%
    17:00 +14°C° 0.6 mm 1 mps 526 mmHg 90%
    18:00 +12°C° 0.6 mm 1 mps 525 mmHg 95%
    19:00 +12°C° 0.2 mm 1 mps 525 mmHg 96%
    20:00 +10°C° 0.2 mm 0 mps 526 mmHg 96%
    21:00 +10°C° 0.2 mm 0 mps 526 mmHg 96%
    22:00 +10°C° 0.1 mm 0 mps 526 mmHg 95%
    23:00 +9°C° 0.1 mm 0 mps 526 mmHg 95%

    21 September, Saturday

    Time Temperature Precipitation Wind Pressure Humidity
    00:00 +9°C° 0.1 mm 0 mps 525 mmHg 95%
    01:00 +9°C° 0 mm 0 mps 525 mmHg 94%
    02:00 +9°C° 0 mm 0 mps 525 mmHg 93%
    03:00 +9°C° 0 mm 0 mps 524 mmHg 92%
    04:00 +9°C° 0 mm 0 mps 524 mmHg 92%
    05:00 +8°C° 0 mm 0 mps 524 mmHg 91%
    06:00 +9°C° 0 mm 1 mps 524 mmHg 91%
    07:00 +12°C° 0 mm 1 mps 526 mmHg 84%
    08:00 +14°C° 0 mm 1 mps 528 mmHg 78%
    09:00 +16°C° 0 mm 1 mps 529 mmHg 71%
    10:00 +18°C° 0.4 mm 1 mps 529 mmHg 70%
    11:00 +17°C° 0.4 mm 2 mps 529 mmHg 69%
    12:00 +18°C° 0.4 mm 2 mps 529 mmHg 68%
    13:00 +17°C° 0.9 mm 2 mps 528 mmHg 73%
    14:00 +16°C° 0.9 mm 2 mps 527 mmHg 78%
    15:00 +16°C° 0.9 mm 2 mps 526 mmHg 83%
    16:00 +14°C° 0.5 mm 1 mps 525 mmHg 87%
    17:00 +13°C° 0.5 mm 1 mps 525 mmHg 92%
    18:00 +12°C° 0.5 mm 1 mps 524 mmHg 96%
    19:00 +11°C° 0.1 mm 0 mps 525 mmHg 96%
    20:00 +10°C° 0.1 mm 0 mps 525 mmHg 96%
    21:00 +10°C° 0.1 mm 0 mps 525 mmHg 95%
    22:00 +10°C° 0.1 mm 0 mps 525 mmHg 95%
    23:00 +10°C° 0.1 mm 0 mps 525 mmHg 95%

    22 September, Sunday

    Time Temperature Precipitation Wind Pressure Humidity
    00:00 +10°C° 0.1 mm 0 mps 526 mmHg 95%
    01:00 +10°C° 0.1 mm 0 mps 525 mmHg 95%
    02:00 +10°C° 0.1 mm 0 mps 525 mmHg 95%
    03:00 +9°C° 0.1 mm 0 mps 525 mmHg 95%
    04:00 +9°C° 0.3 mm 0 mps 525 mmHg 95%
    05:00 +9°C° 0.3 mm 0 mps 525 mmHg 94%
    06:00 +9°C° 0.3 mm 0 mps 525 mmHg 94%
    07:00 +10°C° 0.2 mm 0 mps 526 mmHg 91%
    08:00 +11°C° 0.2 mm 0 mps 527 mmHg 88%
    09:00 +12°C° 0.2 mm 0 mps 527 mmHg 85%
    10:00 +14°C° 0.2 mm 1 mps 528 mmHg 81%
    11:00 +15°C° 0.2 mm 1 mps 528 mmHg 77%
    12:00 +16°C° 0.2 mm 1 mps 528 mmHg 73%
    13:00 +15°C° 0.5 mm 1 mps 527 mmHg 76%
    14:00 +15°C° 0.5 mm 1 mps 527 mmHg 80%
    15:00 +15°C° 0.5 mm 2 mps 526 mmHg 83%
    16:00 +14°C° 0.5 mm 1 mps 526 mmHg 88%
    17:00 +13°C° 0.5 mm 1 mps 525 mmHg 93%
    18:00 +12°C° 0.5 mm 1 mps 525 mmHg 98%
    19:00 +11°C° 0.2 mm 1 mps 525 mmHg 98%
    20:00 +10°C° 0.2 mm 0 mps 526 mmHg 98%
    21:00 +10°C° 0.2 mm 0 mps 526 mmHg 98%
    22:00 +10°C° 0.2 mm 0 mps 526 mmHg 98%
    23:00 +9°C° 0.2 mm 0 mps 526 mmHg 98%
    Show more